Weather History for KOOA - June, 2014

Change the Weather History Date:

Monday, June 9, 2014

  Actual Average (KOTM) Record (KOTM)
Temperature  
Mean Temperature 66 °F 69 °F  
Max Temperature 76 °F 80 °F 95 °F (1972)
Min Temperature 57 °F 59 °F 42 °F (1915)
Degree Days  
Heating Degree Days 0 1  
Month to date heating degree days 13  
Since 1 June heating degree days 13  
Since 1 July heating degree days 6309  
Cooling Degree Days 2 5  
Month to date cooling degree days 39  
Year to date cooling degree days 103  
Since 1 June cooling degree days 39  
Growing Degree Days 16 (Base 50)    
Moisture  
Dew Point 55 °F    
Average Humidity 69    
Maximum Humidity 96    
Minimum Humidity 45    
Precipitation  
Precipitation 0.00 in 0.17 in 1.86 in (1984)
Month to date precipitation 1.53  
Year to date precipitation 14.06  
Sea Level Pressure  
Sea Level Pressure 29.94 in    
Wind  
Wind Speed 8 mph (ENE)    
Max Wind Speed 15 mph    
Max Gust Speed 20 mph    
Visibility 9 miles    
Events      
T = Trace of Precipitation, MM = Missing Value Source: NWS Daily Summary

Daily Weather History Graph

Daily Weather History Graph

Search for Another Location

Airport or City:

Trip Planner

Search our weather history database for the weather conditions in past years. The results will help you decide how hot, cold, wet, or windy it might be!

Date:

Astronomy

Jun. 09, 2014 Rise Set
Actual Time 5:36 AM CDT 8:41 PM CDT
Civil Twilight 5:03 AM CDT 9:15 PM CDT
Nautical Twilight 4:20 AM CDT 9:58 PM CDT
Astronomical Twilight 3:30 AM CDT 10:48 PM CDT
Moon 5:01 PM CDT (6/9) 3:06 AM CDT (6/9)
Length of Visible Light 16h 12m
Length of Day
15h 04m
Waxing Gibbous, 85% of the Moon is Illuminated
Jun 9
Waxing Gibbous
Jun 12
Full
Jun 19
Last Quarter
Jun 27
New
Jul 5
First Quarter

Hourly Weather History & Observations

Time (CDT) Temp. Dew Point Humidity Pressure Visibility Wind Dir Wind Speed Gust Speed Precip Events Conditions
12:15 AM 59.0 °F 56.5 °F 91% 30.02 in 10.0 mi East 4.6 mph - N/A   Clear
12:35 AM 58.1 °F 56.3 °F 94% 30.01 in 7.0 mi ENE 5.8 mph - N/A   Clear
12:55 AM 58.1 °F 56.5 °F 94% 30.01 in 7.0 mi ENE 4.6 mph - N/A   Clear
1:15 AM 57.4 °F 56.3 °F 96% 29.99 in 7.0 mi East 6.9 mph - N/A   Clear
1:35 AM 57.4 °F 56.3 °F 96% 29.99 in 7.0 mi East 6.9 mph - N/A   Clear
1:55 AM 58.6 °F 57.2 °F 95% 29.99 in 10.0 mi East 6.9 mph - N/A   Scattered Clouds
2:15 AM 59.2 °F 57.4 °F 94% 29.98 in 10.0 mi East 6.9 mph - N/A   Scattered Clouds
2:35 AM 59.2 °F 57.4 °F 94% 29.98 in 10.0 mi ESE 6.9 mph - N/A   Scattered Clouds
2:55 AM 59.0 °F 57.4 °F 94% 29.98 in 7.0 mi East 5.8 mph - N/A   Clear
3:15 AM 58.3 °F 56.7 °F 94% 29.98 in 7.0 mi ENE 4.6 mph - N/A   Clear
3:35 AM 57.7 °F 56.5 °F 96% 29.99 in 7.0 mi East 5.8 mph - N/A   Scattered Clouds
3:55 AM 58.1 °F 56.8 °F 96% 29.99 in 7.0 mi East 5.8 mph - N/A   Overcast
4:15 AM 58.3 °F 57.2 °F 96% 29.99 in 5.0 mi ENE 4.6 mph - N/A   Overcast
4:35 AM 58.8 °F 57.7 °F 96% 29.98 in 5.0 mi East 6.9 mph - N/A   Overcast
4:55 AM 59.4 °F 58.1 °F 96% 29.97 in 7.0 mi East 8.1 mph - N/A   Overcast
5:15 AM 59.4 °F 57.7 °F 94% 29.98 in 7.0 mi East 6.9 mph - N/A   Overcast
5:35 AM 58.8 °F 57.2 °F 94% 29.98 in 7.0 mi East 8.1 mph - N/A   Mostly Cloudy
5:55 AM 58.3 °F 56.8 °F 95% 29.98 in 7.0 mi East 8.1 mph - N/A   Scattered Clouds
6:15 AM 58.1 °F 56.7 °F 95% 29.97 in 5.0 mi East 6.9 mph - N/A   Clear
6:35 AM 58.1 °F 56.7 °F 95% 29.97 in 5.0 mi East 6.9 mph - N/A   Clear
6:55 AM 59.0 °F 56.8 °F 93% 29.97 in 10.0 mi East 8.1 mph - N/A   Clear
7:15 AM 60.3 °F 55.4 °F 84% 29.97 in 10.0 mi East 10.4 mph - N/A   Clear
7:35 AM 61.2 °F 53.8 °F 77% 29.96 in 10.0 mi East 11.5 mph - N/A   Clear
7:55 AM 62.4 °F 52.2 °F 69% 29.97 in 10.0 mi ESE 10.4 mph - N/A   Clear
8:15 AM 63.5 °F 50.5 °F 63% 29.98 in 10.0 mi ESE 10.4 mph - N/A   Clear
8:35 AM 63.3 °F 49.3 °F 60% 29.99 in 10.0 mi ESE 10.4 mph - N/A   Mostly Cloudy
8:55 AM 63.5 °F 50.0 °F 61% 29.99 in 10.0 mi ESE 9.2 mph - N/A   Overcast
9:15 AM 64.4 °F 49.5 °F 58% 29.99 in 10.0 mi ESE 6.9 mph - N/A   Overcast
9:35 AM 64.8 °F 48.2 °F 55% 29.98 in 10.0 mi SE 8.1 mph - N/A   Mostly Cloudy
9:55 AM 66.4 °F 48.6 °F 53% 29.97 in 10.0 mi SE 8.1 mph - N/A   Scattered Clouds
10:15 AM 68.4 °F 48.7 °F 49% 29.97 in 10.0 mi SE 10.4 mph - N/A   Scattered Clouds
10:35 AM 70.0 °F 50.0 °F 49% 29.97 in 10.0 mi ESE 9.2 mph - N/A   Clear
10:55 AM 69.8 °F 50.7 °F 51% 29.97 in 10.0 mi SE 8.1 mph - N/A   Clear
11:35 AM 71.1 °F 53.6 °F 54% 29.99 in 10.0 mi SE 9.2 mph - N/A   Mostly Cloudy
11:55 AM 72.1 °F 54.0 °F 53% 29.97 in 10.0 mi East 6.9 mph - N/A   Scattered Clouds
12:15 PM 73.0 °F 55.4 °F 54% 29.97 in 10.0 mi East 5.8 mph - N/A   Clear
12:35 PM 73.4 °F 55.9 °F 54% 29.97 in 10.0 mi East 8.1 mph - N/A   Scattered Clouds
12:55 PM 74.1 °F 56.1 °F 53% 29.96 in 10.0 mi ENE 9.2 mph - N/A   Scattered Clouds
1:15 PM 75.0 °F 56.7 °F 53% 29.95 in 10.0 mi East 11.5 mph 16.1 mph N/A   Clear
1:35 PM 75.2 °F 56.8 °F 53% 29.93 in 10.0 mi ENE 11.5 mph - N/A   Clear
2:35 PM 75.9 °F 55.6 °F 49% 29.92 in 10.0 mi ENE 12.7 mph 17.3 mph N/A   Clear
2:55 PM 76.5 °F 55.2 °F 48% 29.92 in 10.0 mi East 11.5 mph - N/A   Clear
3:15 PM 76.5 °F 54.7 °F 47% 29.91 in 10.0 mi East 15.0 mph 19.6 mph N/A   Clear
3:35 PM 76.6 °F 53.8 °F 45% 29.91 in 10.0 mi ENE 12.7 mph - N/A   Clear
4:15 PM 76.5 °F 54.1 °F 46% 29.89 in 10.0 mi NE 10.4 mph - N/A   Clear
4:35 PM 76.5 °F 54.1 °F 46% 29.88 in 10.0 mi NE 12.7 mph - N/A   Clear
4:55 PM 76.3 °F 54.9 °F 47% 29.88 in 10.0 mi ENE 12.7 mph - N/A   Clear
5:15 PM 76.1 °F 55.0 °F 48% 29.87 in 10.0 mi ENE 13.8 mph - N/A   Clear
5:35 PM 75.6 °F 55.2 °F 49% 29.87 in 10.0 mi ENE 11.5 mph - N/A   Clear
5:55 PM 75.4 °F 55.2 °F 49% 29.87 in 10.0 mi ENE 8.1 mph - N/A   Clear
6:15 PM 74.7 °F 55.6 °F 51% 29.86 in 10.0 mi NE 10.4 mph - N/A   Clear
6:35 PM 74.1 °F 56.1 °F 53% 29.85 in 10.0 mi NE 11.5 mph - N/A   Clear
6:55 PM 73.4 °F 56.5 °F 55% 29.85 in 10.0 mi NE 11.5 mph - N/A   Clear
7:15 PM 72.9 °F 56.3 °F 56% 29.85 in 10.0 mi NE 10.4 mph - N/A   Clear
7:35 PM 72.1 °F 56.5 °F 58% 29.86 in 10.0 mi NE 8.1 mph - N/A   Clear
7:55 PM 71.1 °F 57.2 °F 61% 29.86 in 10.0 mi NE 10.4 mph - N/A   Clear
8:15 PM 70.2 °F 56.8 °F 63% 29.87 in 10.0 mi NE 10.4 mph - N/A   Clear
8:35 PM 69.3 °F 56.5 °F 64% 29.87 in 10.0 mi NNE 9.2 mph - N/A   Clear
8:55 PM 67.8 °F 56.8 °F 68% 29.86 in 10.0 mi NNE 9.2 mph - N/A   Clear
9:15 PM 67.5 °F 56.5 °F 68% 29.86 in 10.0 mi NNE 10.4 mph - N/A   Clear
9:35 PM 67.3 °F 56.7 °F 69% 29.87 in 10.0 mi NNE 8.1 mph - N/A   Clear
9:55 PM 67.5 °F 56.5 °F 68% 29.87 in 10.0 mi NNE 10.4 mph - N/A   Mostly Cloudy
10:15 PM 68.2 °F 56.3 °F 66% 29.87 in 10.0 mi NE 9.2 mph - N/A   Overcast
10:35 PM 68.0 °F 55.9 °F 65% 29.88 in 10.0 mi NE 9.2 mph - N/A   Mostly Cloudy
10:55 PM 67.1 °F 56.5 °F 69% 29.88 in 10.0 mi ENE 9.2 mph - N/A   Scattered Clouds
11:15 PM 66.7 °F 56.8 °F 70% 29.88 in 10.0 mi ENE 8.1 mph - N/A   Mostly Cloudy
11:35 PM 66.7 °F 56.8 °F 70% 29.87 in 10.0 mi NE 9.2 mph - N/A   Mostly Cloudy
11:55 PM 66.7 °F 56.8 °F 70% 29.87 in 10.0 mi NE 10.4 mph - N/A   Mostly Cloudy